Weather History for KAND - July, 2013

Change the Weather History Date:

Saturday, July 13, 2013

  Actual Average Record
Temperature  
Mean Temperature 74 °F -  
Max Temperature 80 °F 91 °F 106 °F (1980)
Min Temperature 68 °F 70 °F 62 °F (1999)
Cooling Degree Days 9    
Growing Degree Days 24 (Base 50)    
Moisture  
Dew Point 69 °F    
Average Humidity 88    
Maximum Humidity 100    
Minimum Humidity 71    
Precipitation  
Precipitation 0.03 in - - ()
Sea Level Pressure  
Sea Level Pressure 30.04 in    
Wind  
Wind Speed 8 mph (NE)    
Max Wind Speed 12 mph    
Max Gust Speed -    
Visibility 10 miles    
Events Rain , Thunderstorm    
Averages and records for this station are not official NWS values.
T = Trace of Precipitation, MM = Missing Value Source: NWS Daily Summary

Daily Weather History Graph

Daily Weather History Graph

Search for Another Location

Airport or City:

Trip Planner

Search our weather history database for the weather conditions in past years. The results will help you decide how hot, cold, wet, or windy it might be!

Date:

Astronomy

Jul. 13, 2013 Rise Set
Actual Time 6:28 AM EDT 8:44 PM EDT
Civil Twilight 5:59 AM EDT 9:13 PM EDT
Nautical Twilight 5:24 AM EDT 9:48 PM EDT
Astronomical Twilight 4:45 AM EDT 10:26 PM EDT
Moon 11:27 AM EDT (7/13) 11:41 PM EDT (7/13)
Length of Visible Light 15h 13m
Length of Day
14h 16m
Waxing Crescent, 25% of the Moon is Illuminated
Jul 13
Waxing Crescent
Jul 15
First Quarter
Jul 22
Full
Jul 29
Last Quarter
Aug 6
New

Hourly Weather History & Observations

Time (EDT) Temp. Heat Index Dew Point Humidity Pressure Visibility Wind Dir Wind Speed Gust Speed Precip Events Conditions
12:39 AM 69.8 °F - 66.2 °F 88% 30.01 in 10.0 mi ENE 5.8 mph - N/A   Overcast
12:56 AM 69.1 °F - 66.9 °F 93% 29.98 in 10.0 mi ENE 8.1 mph - 0.00 in Rain Light Rain
1:43 AM 69.8 °F - 68.0 °F 94% 30.00 in 10.0 mi ENE 10.4 mph - 0.00 in   Mostly Cloudy
1:56 AM 69.1 °F - 68.0 °F 96% 29.98 in 10.0 mi ENE 9.2 mph - 0.00 in   Mostly Cloudy
2:42 AM 69.8 °F - 69.8 °F 100% 30.01 in 10.0 mi NE 6.9 mph - N/A   Overcast
2:56 AM 69.1 °F - 68.0 °F 96% 29.98 in 10.0 mi ENE 9.2 mph - N/A   Overcast
3:41 AM 69.8 °F - 68.0 °F 94% 30.01 in 10.0 mi East 9.2 mph - N/A Thunderstorm Overcast
3:49 AM 69.8 °F - 68.0 °F 94% 30.01 in 10.0 mi ENE 8.1 mph - N/A   Overcast
3:56 AM 69.1 °F - 68.0 °F 96% 29.99 in 10.0 mi East 5.8 mph - N/A Thunderstorm Overcast
4:16 AM 69.8 °F - 68.0 °F 94% 30.01 in 10.0 mi ENE 8.1 mph - N/A   Overcast
4:35 AM 69.8 °F - 68.0 °F 94% 30.01 in 10.0 mi ENE 6.9 mph - N/A Thunderstorm Overcast
4:56 AM 69.1 °F - 68.0 °F 96% 29.99 in 10.0 mi ENE 6.9 mph - N/A Thunderstorm Overcast
5:10 AM 69.8 °F - 68.0 °F 94% 30.02 in 10.0 mi ENE 6.9 mph - N/A   Overcast
5:52 AM 69.8 °F - 66.2 °F 88% 30.03 in 10.0 mi North 6.9 mph - N/A Thunderstorm Overcast
5:56 AM 69.1 °F - 66.9 °F 93% 30.01 in 10.0 mi North 8.1 mph - N/A Thunderstorm Overcast
6:25 AM 68.0 °F - 66.2 °F 94% 30.03 in 10.0 mi NNE 8.1 mph - N/A   Overcast
6:56 AM 68.0 °F - 66.0 °F 93% 30.01 in 10.0 mi ENE 9.2 mph - N/A   Scattered Clouds
7:47 AM 69.8 °F - 66.2 °F 88% 30.05 in 10.0 mi NNE 5.8 mph - N/A   Mostly Cloudy
7:56 AM 69.1 °F - 66.9 °F 93% 30.03 in 10.0 mi NE 9.2 mph - N/A   Overcast
8:14 AM 69.8 °F - 66.2 °F 88% 30.05 in 10.0 mi NNE 5.8 mph - N/A   Overcast
8:26 AM 69.8 °F - 66.2 °F 88% 30.06 in 10.0 mi NE 6.9 mph - N/A   Overcast
8:56 AM 70.0 °F - 68.0 °F 93% 30.06 in 10.0 mi NE 6.9 mph - N/A   Overcast
9:56 AM 72.0 °F - 68.0 °F 87% 30.07 in 10.0 mi East 10.4 mph - N/A   Overcast
10:05 AM 73.4 °F - 69.8 °F 88% 30.09 in 10.0 mi ENE 8.1 mph - N/A   Overcast
10:56 AM 73.9 °F - 69.1 °F 85% 30.07 in 10.0 mi ENE 9.2 mph - N/A   Overcast
11:20 AM 75.2 °F - 69.8 °F 83% 30.10 in 10.0 mi ENE 9.2 mph - N/A   Mostly Cloudy
11:56 AM 73.9 °F - 69.1 °F 85% 30.08 in 10.0 mi ENE 8.1 mph - N/A   Overcast
12:52 PM 78.8 °F - 69.8 °F 74% 30.10 in 10.0 mi NE 10.4 mph - N/A   Scattered Clouds
12:56 PM 77.0 °F - 70.0 °F 79% 30.08 in 10.0 mi ENE 11.5 mph - N/A   Scattered Clouds
1:56 PM 80.1 °F 83.2 °F 70.0 °F 71% 30.05 in 10.0 mi NE 10.4 mph - N/A   Partly Cloudy
2:56 PM 75.9 °F - 70.0 °F 82% 30.06 in 9.0 mi East 9.2 mph - 0.01 in Rain Rain
3:10 PM 75.2 °F - 69.8 °F 83% 30.08 in 10.0 mi East 6.9 mph - 0.01 in Rain , Thunderstorm Light Rain
3:25 PM 75.2 °F - 71.6 °F 89% 30.08 in 8.0 mi ENE 9.2 mph - 0.02 in Rain Light Rain
3:56 PM 77.0 °F - 70.0 °F 79% 30.05 in 10.0 mi ENE 8.1 mph - 0.02 in   Clear
4:56 PM 79.0 °F - 70.0 °F 74% 30.03 in 10.0 mi ENE 9.2 mph - N/A   Partly Cloudy
5:56 PM 78.1 °F - 70.0 °F 76% 30.03 in 10.0 mi ENE 11.5 mph - N/A   Clear
6:56 PM 77.0 °F - 70.0 °F 79% 30.04 in 10.0 mi ENE 10.4 mph - N/A   Mostly Cloudy
7:56 PM 77.0 °F - 70.0 °F 79% 30.05 in 10.0 mi ENE 4.6 mph - N/A   Scattered Clouds
8:56 PM 75.0 °F - 71.1 °F 87% 30.06 in 10.0 mi NE 3.5 mph - N/A   Mostly Cloudy
9:56 PM 75.0 °F - 71.1 °F 87% 30.07 in 10.0 mi NE 4.6 mph - N/A   Mostly Cloudy
10:56 PM 73.9 °F - 71.1 °F 91% 30.06 in 10.0 mi Calm Calm - N/A   Partly Cloudy
11:45 PM 73.4 °F - 71.6 °F 94% 30.10 in 10.0 mi Calm Calm - N/A   Overcast
11:56 PM 73.9 °F - 71.1 °F 91% 30.08 in 10.0 mi NE 4.6 mph - N/A   Overcast